Find Starlink 4643

NORAD ID: 54824 Int'l Des: 2022-177 Owner: SPXS Country: US Constellation: starlink operational
LEOCIRCULAR

リアルタイム位置

3D地球を読み込み中...

Starlink 4643について

説明を読み込み中...

次回通過

Passes for default location (London). Set your location on the main map for personalized predictions.

高度履歴

Loading altitude history...

軌道要素

1 54824U 22177E 26123.21461653 .00000132 00000-0 14324-4 0 9998
2 54824 42.9994 188.0100 0000925 280.6940 79.3807 15.27575957185264
Epoch: May 3, 2026 • Age: 4 hours

現在のステータス

高度 483.7 km
速度 7.62 km/s
衛星直下点 -5.29°S, 14.86°E
打ち上げ日 Dec 28, 2022
運用期間 3.3 years
タイプ internet

技術仕様

分類 Payload
質量 305.00 kg
乾燥質量 290.00 kg
総質量 305.00 kg
長さ 0.20 m
直径 2.80 m
スパン 9.00 m
形状 Box + pan
製造者 SPXS
バスタイプ Starlink
フェーズステータス In Orbit
所有者/国 SPXS/US

Most Searched